Wind_Speed
13 11 9 5 2 4 3 5 6 7 8 8 7 7 6 7 8 9 10 12 14 17 19 19 18 18 17 15 13 13 13 12
13 11 7 2 3 3 5 7 8 8 8 7 5 4 5 8 9 10 12 14 16 17 19 20 21 20 18 17 16 15 13 13
13 9 4 3 3 5 6 7 8 8 6 4 2 3 6 9 10 11 13 15 17 19 20 21 20 19 18 19 19 19 17 15
7 4 5 4 4 7 8 9 9 6 3 0 3 7 10 11 12 13 14 17 19 20 20 20 20 21 22 22 22 21 21 20
4 5 6 8 10 10 10 10 8 5 3 3 6 9 12 14 13 14 17 19 20 21 21 21 22 23 24 25 26 26 25 23
8 10 11 12 12 13 13 11 8 5 5 6 8 13 15 16 17 18 20 22 23 23 23 23 24 26 27 29 29 30 30 29
10 9 8 10 13 13 12 9 7 6 7 9 12 15 18 18 20 22 24 25 25 25 25 26 28 30 31 32 33 33 34 35
5 5 7 10 11 11 9 6 6 6 11 15 15 18 18 20 23 26 27 27 26 29 30 30 29 32 34 36 35 37 39 39
8 9 11 11 11 11 12 9 7 8 23 23 18 21 20 23 26 29 31 33 31 33 28 32 39 39 39 42 45 44 43 43
15 18 19 19 17 18 19 11 13 17 17 17 20 21 23 26 27 29 30 36 32 35 36 41 37 46 47 47 48 47 48 49
20 23 23 24 25 24 27 20 8 12 14 17 21 26 28 30 31 32 34 34 37 40 42 44 46 48 49 50 51 51 50 49
22 26 31 30 30 14 15 8 7 11 15 19 23 26 27 28 30 33 36 37 40 43 45 48 50 52 53 53 51 50 47 47
26 28 23 19 8 5 5 7 8 11 14 18 21 24 27 31 35 37 39 40 41 42 44 46 47 50 52 52 51 52 50 48
18 20 9 10 7 10 11 12 13 15 17 20 23 28 33 36 34 35 37 40 42 43 44 46 48 50 52 54 54 54 53 52
5 4 6 7 8 10 11 14 17 20 25 29 34 37 38 39 40 40 42 42 42 42 43 45 47 48 49 50 53 55 56 51
3 9 11 12 12 12 16 19 24 29 34 38 40 40 42 43 44 44 44 44 45 45 46 48 48 49 50 50 50 52 50 51
13 15 17 20 19 19 23 27 31 36 41 42 42 43 44 43 44 45 46 47 49 48 47 47 48 47 47 44 39 37 33 34
24 28 23 21 23 23 27 32 34 40 42 42 43 43 43 44 45 46 49 49 48 46 46 46 44 40 36 35 33 31 32 36
16 18 20 22 30 28 31 34 38 42 41 41 42 43 44 45 47 48 48 47 48 47 46 45 43 40 34 34 36 34 35 36
20 24 27 27 28 30 36 39 42 40 40 41 43 45 46 46 47 47 48 49 48 46 43 40 39 37 33 34 34 34 35 37
Wind_Direction
166 168 164 179 272 300 185 170 159 145 131 120 103 85 60 31 10 3 0 359 356 354 349 345 342 338 336 334 330 322 314 305
169 167 175 223 293 197 178 169 159 148 140 126 101 72 28 358 355 349 348 346 346 348 345 342 339 339 339 338 336 331 323 313
170 176 199 267 238 183 175 165 159 146 133 118 85 7 347 342 337 335 334 333 333 336 337 337 335 334 333 331 327 325 324 316
180 209 244 245 186 166 169 164 153 140 129 109 330 332 336 331 325 321 320 321 323 324 327 325 324 323 320 320 319 320 318 316
225 220 189 174 160 157 151 152 159 174 217 267 306 322 324 318 312 307 310 313 314 316 315 313 312 313 311 311 312 312 309 306
138 150 160 157 156 157 162 168 180 205 250 285 309 315 313 306 308 310 310 312 311 309 306 305 303 306 307 307 307 306 305 303
121 130 154 164 163 169 173 182 200 238 268 289 302 313 311 310 310 309 309 309 306 300 302 302 298 297 298 300 302 303 303 301
148 154 175 185 187 191 188 210 244 256 295 296 302 308 305 304 302 302 300 300 297 294 298 297 294 297 296 296 299 298 300 299
220 232 235 226 216 208 213 219 219 285 315 283 289 296 295 297 295 295 299 299 299 303 298 308 291 302 299 297 299 299 298 296
242 247 246 240 235 226 211 210 301 311 266 282 289 290 288 289 296 300 293 299 296 302 288 303 290 297 295 292 292 295 295 294
253 264 267 261 248 241 227 328 307 278 278 280 284 283 290 291 298 289 298 297 299 298 297 296 294 294 295 295 295 294 294 293
265 269 268 267 255 316 318 298 277 290 289 288 290 294 300 306 304 302 300 298 297 297 296 296 295 296 295 295 295 294 293 292
276 274 290 288 320 321 302 329 315 304 302 303 303 305 306 305 302 297 293 293 295 297 297 296 295 295 295 295 295 294 294 293
275 294 309 317 316 329 356 355 340 325 311 307 307 304 304 303 303 302 299 300 302 302 301 299 296 295 295 295 296 296 293 293
281 301 313 332 356 347 332 327 322 319 316 313 315 318 316 314 313 311 310 308 306 303 300 297 295 294 294 294 295 294 293 289
301 356 348 339 331 331 328 327 326 325 324 323 322 320 319 318 316 314 313 310 307 306 304 301 300 297 296 295 296 297 297 295
326 320 319 312 304 314 316 318 324 327 325 320 319 318 318 316 314 313 312 311 310 307 305 304 303 303 302 302 301 295 295 299
296 291 292 303 308 304 311 313 318 320 316 315 316 317 317 317 315 313 311 311 311 312 312 311 311 310 309 308 303 296 299 302
299 284 293 304 305 299 307 310 313 313 312 315 316 317 317 315 313 311 311 313 314 315 315 313 310 308 306 304 301 295 299 299
300 296 301 306 309 302 308 311 311 313 315 316 316 315 314 312 311 314 316 316 315 312 310 308 306 303 297 302 294 294 297 300
Height
3188 3191 3192 3193 3195 3195 3195 3195 3195 3195 3195 3195 3194 3193 3194 3193 3193 3193 3190 3188 3187 3184 3184 3181 3179 3177 3176 3174 3173 3172 3170 3169
3188 3190 3192 3193 3194 3193 3194 3194 3194 3194 3194 3194 3193 3193 3193 3193 3192 3191 3189 3188 3187 3183 3183 3180 3177 3175 3173 3172 3171 3169 3168 3167
3188 3190 3191 3192 3192 3192 3193 3193 3194 3195 3194 3194 3193 3193 3192 3191 3190 3189 3187 3186 3184 3183 3181 3179 3176 3174 3172 3170 3169 3167 3166 3164
3187 3188 3189 3190 3191 3190 3192 3192 3192 3193 3194 3192 3192 3192 3190 3189 3188 3186 3184 3183 3182 3181 3179 3177 3175 3173 3170 3168 3166 3164 3163 3161
3186 3187 3187 3188 3188 3190 3190 3191 3191 3190 3191 3190 3190 3190 3187 3186 3185 3183 3182 3180 3179 3177 3176 3174 3171 3169 3166 3164 3162 3160 3158 3157
3184 3184 3185 3186 3187 3188 3187 3188 3188 3189 3189 3189 3188 3186 3184 3182 3181 3180 3179 3177 3175 3173 3171 3169 3167 3165 3162 3159 3156 3154 3152 3150
3185 3184 3185 3186 3185 3185 3186 3186 3187 3187 3187 3187 3184 3183 3181 3179 3177 3176 3174 3172 3170 3168 3166 3164 3162 3159 3156 3154 3151 3149 3146 3144
3184 3183 3183 3182 3183 3184 3184 3185 3185 3184 3184 3184 3182 3181 3178 3175 3173 3171 3169 3166 3164 3162 3160 3157 3155 3153 3150 3147 3145 3143 3139 3137
3181 3181 3181 3181 3180 3180 3180 3182 3181 3182 3180 3178 3178 3176 3174 3171 3168 3165 3163 3160 3158 3155 3152 3148 3147 3144 3142 3139 3136 3135 3131 3129
3179 3178 3178 3177 3177 3175 3174 3176 3177 3178 3175 3174 3172 3171 3169 3165 3162 3160 3157 3153 3149 3147 3144 3142 3138 3135 3132 3130 3128 3126 3122 3119
3177 3176 3175 3174 3171 3170 3165 3165 3170 3170 3169 3168 3167 3165 3162 3160 3157 3154 3150 3147 3143 3140 3137 3133 3129 3125 3122 3118 3117 3114 3111 3108
3173 3172 3169 3169 3166 3158 3166 3165 3164 3165 3165 3164 3163 3161 3158 3154 3151 3147 3143 3139 3135 3131 3126 3121 3117 3112 3109 3105 3103 3101 3099 3097
3170 3166 3159 3162 3160 3165 3162 3163 3162 3162 3161 3160 3158 3155 3152 3148 3144 3140 3135 3131 3127 3122 3117 3113 3108 3103 3097 3093 3091 3088 3086 3084
3165 3164 3160 3160 3161 3161 3159 3159 3159 3158 3157 3154 3152 3150 3146 3141 3137 3132 3127 3122 3117 3112 3107 3102 3098 3093 3088 3083 3079 3076 3073 3071
3162 3162 3160 3159 3159 3158 3157 3156 3154 3153 3151 3149 3145 3141 3136 3132 3126 3120 3115 3110 3106 3101 3097 3092 3087 3083 3079 3075 3068 3063 3059 3059
3160 3159 3158 3157 3156 3156 3154 3151 3149 3146 3144 3139 3135 3130 3125 3119 3113 3108 3104 3099 3095 3090 3084 3079 3075 3070 3067 3062 3057 3051 3045 3039
3158 3156 3156 3155 3153 3151 3149 3145 3142 3137 3135 3131 3126 3120 3114 3109 3104 3098 3093 3088 3083 3077 3072 3067 3062 3058 3052 3048 3045 3040 3034 3028
3154 3153 3151 3150 3148 3145 3142 3139 3135 3132 3128 3122 3116 3110 3104 3098 3093 3087 3082 3076 3071 3065 3059 3054 3050 3045 3040 3037 3034 3031 3026 3021
3149 3148 3146 3145 3143 3140 3136 3133 3129 3125 3119 3112 3106 3100 3095 3090 3084 3078 3072 3066 3060 3053 3049 3044 3040 3036 3033 3029 3025 3022 3018 3013
3145 3144 3141 3139 3136 3133 3130 3125 3120 3115 3108 3103 3098 3093 3087 3082 3076 3069 3062 3055 3050 3045 3040 3036 3032 3028 3023 3020 3016 3012 3008 3004